Regional Weather Roundup
Issued by NWS Charleston, SC

Current Version | Previous Version | Graphics & Text | Print | Product List | Glossary On
Versions: 1 2 3 4 5 6 7 8 9 10 11 12 13 14 15 16 17 18 19 20 21 22 23 24 25 26 27 28 29 30 31 32 33 34 35 36 37 38 39 40 41 42 43 44 45 46 47 48 49 50
000 ASUS42 KCHS 201825 RWRCHS REGIONAL WEATHER ROUNDUP NATIONAL WEATHER SERVICE CHARLESTON SC 200 PM EDT SAT SEP 20 2014 NOTE: "FAIR" INDICATES FEW OR NO CLOUDS BELOW 12,000 FEET WITH NO SIGNIFICANT WEATHER AND/OR OBSTRUCTIONS TO VISIBILITY. NOT ALL STATIONS ARE QUALITY CONTROLLED BY THE NATIONAL WEATHER SERVICE. USE DATA WITH CAUTION...ESPECIALLY DEWPOINT OBSERVATIONS. SCZ027-030-031-034>040-042>050-201900- ...SOUTH CAROLINA... CITY SKY/WX TMP DP RH WIND PRES REMARKS N CHARLESTON CLOUDY 75 66 73 N13 30.02F 6HR MIN TEMP: 70; 6HR MAX TEMP: 75; WATERFRONT PRK N/A 73 N/A N/A N21 N/A FORT JOHNSON NOT AVBL MOUNT PLEASANT MOCLDY 73 68 83 N7 30.01F JOHNS ISLAND PTCLDY 73 73 100 N13 30.01F PINOPOLIS N/A 75 66 73 NE16 29.97F MONCKS CORNER N/A 75 70 83 N9G16 30.03F SUMMERVILLE FAIR 73 68 83 N12G21 30.04F BEAUFORT MCAS CLOUDY 74 66 76 W13 30.02F 6HR MIN TEMP: 70; 6HR MAX TEMP: 74; BEAUFORT ARPT MOCLDY 73 68 83 N10G17 30.01F HILTON HEAD IS MOSUNNY 73 70 88 N12 30.04S GEORGETOWN NOT AVBL WALTERBORO CLOUDY 75 66 73 N6G17 30.03F ORANGEBURG PTSUNNY 75 61 61 NE10 30.07F 6HR MIN TEMP: 64; 6HR MAX TEMP: 75; BARNWELL FAIR 79 64 61 NE12 30.07F AIKEN FAIR 81 66 61 NE12G17 30.12F MANNING FAIR 77 66 69 N13 30.05F KINGSTREE NOT AVBL COLUMBIA PTSUNNY 82 58 43 NE13 30.09F 6HR MIN TEMP: 67; 6HR MAX TEMP: 83; SUMTER CLOUDY 78 60 54 NE14 30.08F 6HR MIN TEMP: 63; 6HR MAX TEMP: 78; FLORENCE CLOUDY 77 61 57 N17G23 30.07F 6HR MIN TEMP: 63; 6HR MAX TEMP: 78; MYRTLE BEACH PTSUNNY 75 64 69 NE14G23 30.03F N MYRTLE BEACH CLOUDY 76 66 71 N14 30.03F 6HR MIN TEMP: 67; 6HR MAX TEMP: 76; $$ GAZ063-065-086>088-099>101-113>116-118-119-134-136>141-150-201900- ...GEORGIA... CITY SKY/WX TMP DP RH WIND PRES REMARKS SAVANNAH ARPT CLOUDY 76 66 71 N14G23 30.01F 6HR MIN TEMP: 72; 6HR MAX TEMP: 76; 6HR PCP: TRACE; HUNTER AAF CLOUDY 74 68 81 N10 29.98F 6HR MIN TEMP: 71; 6HR MAX TEMP: 74; 6HR PCP: 0.02; FORT STEWART CLOUDY 76 67 72 NE12G20 30.00F 6HR MIN TEMP: 71; 6HR MAX TEMP: 77; STATESBORO NOT AVBL SYLVANIA CLOUDY 82 71 70 NE15G22 30.05F CLAXTON FAIR 79 70 73 NE9G18 30.03F THOMSON SUNNY 83 69 62 NE6 30.12F AUGUSTA-BUSH MOSUNNY 82 61 48 NE10 30.07F 6HR MIN TEMP: 67; 6HR MAX TEMP: 84; AUGUSTA-DANIEL MOSUNNY 82 61 48 NE12G21 30.09F SWAINSBORO FAIR 82 66 57 E12G21 30.06F VIDALIA PTSUNNY 82 68 61 NE16G22 30.03F ALMA MOSUNNY 81 68 64 VRB7 30.01F 6HR MIN TEMP: 70; 6HR MAX TEMP: 82; WAYCROSS CLOUDY 83 72 69 NE12G23 29.99F JESUP CLOUDY 81 72 74 E9 30.00F BRUNSWICK CLOUDY 73 72 94 N8 29.98F SAINT SIMONS RAIN 73 71 93 N13G22 29.95F 6HR MIN TEMP: 73; 6HR MAX TEMP: 77; 6HR PCP: 0.21; $$ SCZ027-028-034-036>038-045-046-048>050-GAZ119-141-201900- ...LAKE AND SUPPLEMENTAL COASTAL OBSERVATIONS... STATION/POSITION TIME TEMP WIND PRES WAVE SWELL AIR SEA DIR/SP/G HT/PER HT/PER/DIR (UTC) (F) (DEG/KT/KT) (MB) (FT/S) (FT/S/D) UPR LAKE MARION NOT AVBL WINYAH BAY 1800 74 10/ 6 1017.0S LAKE MURRAY 1700 78 40/ 4/ 9 1019.0F ACE BASIN NERRS 1800 73 10/ 5 1016.0F FORT PULASKI 1800 72 360/ 13/ 17 1015.9F SAPELO ISLAND 1800 73 10/ 15 1015.0F $$ ANZ835-935-AMZ111-154-330-350-352-354-374-450-454-472-201900- ...C-MAN AND BUOY OBSERVATIONS... STATION/POSITION TIME TEMP WIND PRES WAVE SWELL AIR SEA DIR/SP/G HT/PER HT/PER/DIR (UTC) (F) (DEG/KT/KT) (MB) (FT/S) (FT/S/D) FOLLY BEACH CMAN 1800 73 360/ 16/ 19 1016.5F BUOY 41004 1800 77 82 70/ 17/ 21 1014.1F 7/ 7 3/ 9 BUOY 41008 1800 76 83 20/ 21/ 27 1014.0F 6/ 8 3/ 80/10 5E ST. MARYS GA 1800 84 N/A 6/ 6 FRYING PAN BUOY NOT AVBL BUOY 41025 1800 80 120/ 12/ 16 1017.3F 7/10 7/ 80/10 CAPE LOOKOUT NC 1800 74 40/ 20/ 23 1017.3F BUOY 41002 1727 78 82 130/ 23/ 29 1012.8F 8/ 7 2/ 80/10 BUOY 41010 1800 82 84 220/ 17/ 21 1011.2F 6/ 7 5/ 60/ 7 BUOY 41012 NOT AVBL ST AUGUSTINE FL 1800 76 10/ 15/ 17 1013.1F CAPERS NEARSHORE 1700 74 30/ 19/ 25 N/A FRIPP NEARSHORE NOT AVBL $$

USA.gov is the U.S. government's official web portal to all federal, state and local government web resources and services.